Angleton, TX

11:03 PM CST on February 23, 2018 (GMT -0600)
Brazoria County

Weather History for KLBX - July, 2013

Change the Weather History Date:

Tuesday, July 9, 2013

  Actual Average Record
Temperature  
Mean Temperature 82 °F -  
Max Temperature 93 °F 89 °F 96 °F (2005)
Min Temperature 73 °F 72 °F 70 °F (2001)
Cooling Degree Days 17    
Growing Degree Days 32 (Base 50)    
Moisture  
Dew Point 74 °F    
Average Humidity 82    
Maximum Humidity 100    
Minimum Humidity 54    
Precipitation  
Precipitation 0.00 in - - ()
Sea Level Pressure  
Sea Level Pressure 30.10 in    
Wind  
Wind Speed 3 mph (SSE)    
Max Wind Speed 15 mph    
Max Gust Speed 22 mph    
Visibility 8 miles    
Events      
Averages and records for this station are not official NWS values.
T = Trace of Precipitation, MM = Missing Value Source: NWS Daily Summary

Daily Weather History Graph

Daily Weather History Graph

Search for Another Location

Airport or City:

Trip Planner

Search our weather history database for the weather conditions in past years. The results will help you decide how hot, cold, wet, or windy it might be!

Date:

Astronomy

Jul. 09, 2013 Rise Set
Actual Time 6:30 AM CDT 8:24 PM CDT
Civil Twilight 6:03 AM CDT 8:50 PM CDT
Nautical Twilight 5:30 AM CDT 9:23 PM CDT
Astronomical Twilight 4:56 AM CDT 9:57 PM CDT
Moon 7:45 AM CDT (7/9) 9:14 PM CDT (7/9)
Length of Visible Light 14h 47m
Length of Day
13h 54m
New Moon, 2% of the Moon is Illuminated
Jul 9
New Moon
Jul 15
First Quarter
Jul 22
Full
Jul 29
Last Quarter
Aug 6
New

Hourly Weather History & Observations

Time (CDT) Temp. Heat Index Dew Point Humidity Pressure Visibility Wind Dir Wind Speed Gust Speed Precip Events Conditions
12:53 AM 75.0 °F - 73.9 °F 96% 30.10 in 8.0 mi Calm Calm - N/A   Partly Cloudy
1:53 AM 75.0 °F - 73.9 °F 96% 30.10 in 9.0 mi Calm Calm - N/A   Partly Cloudy
2:06 AM 75.2 °F - 73.4 °F 94% 30.10 in 1.8 mi Calm Calm - N/A   Partly Cloudy
2:15 AM 73.4 °F - 73.4 °F 100% 30.10 in 3.0 mi Calm Calm - N/A   Scattered Clouds
2:53 AM 75.0 °F - 73.9 °F 96% 30.10 in 9.0 mi Calm Calm - N/A   Clear
3:35 AM 73.4 °F - 73.4 °F 100% 30.10 in 1.8 mi Calm Calm - N/A   Partly Cloudy
3:43 AM 73.4 °F - 71.6 °F 94% 30.10 in 1.0 mi NNE 3.5 mph - N/A   Mist
3:47 AM 73.4 °F - 71.6 °F 94% 30.10 in 2.5 mi Calm Calm - N/A   Partly Cloudy
3:53 AM 73.0 °F - 72.0 °F 96% 30.10 in 4.0 mi Calm Calm - N/A   Partly Cloudy
4:53 AM 73.0 °F - 73.0 °F 100% 30.10 in 9.0 mi Calm Calm - N/A   Clear
5:53 AM 73.0 °F - 73.0 °F 100% 30.10 in 9.0 mi Calm Calm - N/A   Partly Cloudy
6:23 AM 73.4 °F - 71.6 °F 94% 30.10 in 1.8 mi Calm Calm - N/A   Partly Cloudy
6:42 AM 73.4 °F - 73.4 °F 100% 30.11 in 3.0 mi Calm Calm - N/A   Partly Cloudy
6:53 AM 73.9 °F - 73.0 °F 97% 30.11 in 7.0 mi Calm Calm - N/A   Clear
7:53 AM 79.0 °F - 77.0 °F 94% 30.12 in 10.0 mi Calm Calm - N/A   Clear
8:53 AM 84.0 °F 93.7 °F 77.0 °F 79% 30.14 in 10.0 mi SE 4.6 mph - N/A   Clear
9:53 AM 87.1 °F 96.3 °F 75.0 °F 67% 30.14 in 10.0 mi SE 3.5 mph - N/A   Clear
10:53 AM 89.1 °F 97.0 °F 73.0 °F 59% 30.14 in 10.0 mi ESE 5.8 mph - N/A   Mostly Cloudy
11:53 AM 91.0 °F 99.3 °F 73.0 °F 55% 30.13 in 10.0 mi East 6.9 mph - N/A   Mostly Cloudy
12:53 PM 91.9 °F 100.7 °F 73.0 °F 54% 30.12 in 10.0 mi SE 12.7 mph 17.3 mph N/A   Partly Cloudy
1:53 PM 91.9 °F 101.3 °F 73.9 °F 55% 30.12 in 10.0 mi SE 12.7 mph - N/A   Partly Cloudy
2:53 PM 90.0 °F 99.0 °F 73.9 °F 59% 30.11 in 10.0 mi SSE 9.2 mph 21.9 mph N/A   Scattered Clouds
3:53 PM 90.0 °F 96.9 °F 72.0 °F 55% 30.09 in 10.0 mi SSE 13.8 mph 17.3 mph N/A   Partly Cloudy
4:53 PM 91.0 °F 99.3 °F 73.0 °F 55% 30.08 in 10.0 mi South 13.8 mph 18.4 mph N/A   Scattered Clouds
5:53 PM 89.1 °F 96.0 °F 72.0 °F 57% 30.07 in 10.0 mi SSE 15.0 mph 21.9 mph N/A   Partly Cloudy
6:53 PM 88.0 °F 96.5 °F 73.9 °F 63% 30.06 in 10.0 mi SSE 13.8 mph - N/A   Scattered Clouds
7:53 PM 84.9 °F 93.3 °F 75.0 °F 72% 30.06 in 10.0 mi SE 8.1 mph - N/A   Partly Cloudy
8:53 PM 80.1 °F 84.5 °F 73.9 °F 81% 30.06 in 10.0 mi SSE 4.6 mph - N/A   Clear
9:53 PM 80.1 °F 85.1 °F 75.0 °F 85% 30.06 in 10.0 mi South 3.5 mph - N/A   Scattered Clouds
10:03 PM 80.6 °F 86.2 °F 75.2 °F 84% 30.06 in 10.0 mi South 4.6 mph - N/A   Mostly Cloudy
10:14 PM 80.6 °F 86.2 °F 75.2 °F 84% 30.07 in 10.0 mi South 5.8 mph - N/A   Scattered Clouds
10:53 PM 79.0 °F - 75.0 °F 88% 30.07 in 10.0 mi South 5.8 mph - N/A   Clear
11:53 PM 78.1 °F - 75.0 °F 90% 30.08 in 10.0 mi South 4.6 mph - N/A   Clear